Location: Nelson
(41.2830°S, 173.2830°E)
Time: 18:42:25
(UTC+12:00)

Lacrosse 5 - Pass Details

Date: 14 May 2021
Orbit: 715 x 724 km, 57.0° (Epoch: 15 June)

Event Time Altitude Azimuth Distance (km) Brightness Sun altitude
Rises 17:44:42 0° 224° (SW) 3,163 5.5 -5.3°
Reaches altitude 10° 17:47:49 10° 205° (SSW) 2,237 4.5 -5.8°
Maximum altitude 17:51:25 19° 161° (SSE) 1,716 3.5 -6.5°
Drops below altitude 10° 17:55:00 10° 116° (ESE) 2,226 3.7 -7.1°
Enters shadow 17:55:25 - 113° (ESE) 2,336 3.8 -7.2°
